Arctic Village, AK

11:39 AM AKDT on April 27, 2017 (GMT -0800)
Arctic Village

Weather History for PARC - February, 2013

Change the Weather History Date:

Tuesday, February 5, 2013

  Actual Average Record
Temperature  
Mean Temperature -11 °F -  
Max Temperature -4 °F -12 °F 24 °F (2003)
Min Temperature -18 °F -42 °F -59 °F (1971)
Degree Days  
Heating Degree Days 76    
Moisture  
Dew Point -22 °F    
Average Humidity 52    
Maximum Humidity 85    
Minimum Humidity 17    
Precipitation  
Precipitation 0.00 in - - ()
Sea Level Pressure  
Sea Level Pressure 29.67 in    
Wind  
Wind Speed 2 mph (ENE)    
Max Wind Speed 8 mph    
Max Gust Speed -    
Visibility 8 miles    
Events      
Averages and records for this station are not official NWS values.
T = Trace of Precipitation, MM = Missing Value Source: NWS Daily Summary

Daily Weather History Graph

Daily Weather History Graph

Search for Another Location

Airport or City:

Trip Planner

Search our weather history database for the weather conditions in past years. The results will help you decide how hot, cold, wet, or windy it might be!

Date:

Astronomy

Feb. 05, 2013 Rise Set
Actual Time 9:41 AM AKST 4:12 PM AKST
Civil Twilight 8:32 AM AKST 5:21 PM AKST
Nautical Twilight 7:24 AM AKST 6:29 PM AKST
Astronomical Twilight 6:19 AM AKST 7:34 PM AKST
Moon 7:13 AM AKST (2/5) 9:56 AM AKST (2/5)
Length of Visible Light 8h 48m
Length of Day
6h 31m
Waning Crescent, 25% of the Moon is Illuminated
Feb 5
Waning Crescent
Feb 9
New
Feb 17
First Quarter
Feb 25
Full
Mar 4
Last Quarter

Hourly Weather History & Observations

Time (AKST) Temp. Windchill Dew Point Humidity Pressure Visibility Wind Dir Wind Speed Gust Speed Precip Events Conditions
12:16 AM -5.8 °F -18.4 °F - N/A% 29.66 in 10.0 mi East 5.8 mph - N/A   Partly Cloudy
12:36 AM -5.8 °F -16.7 °F - N/A% 29.66 in 10.0 mi East 4.6 mph - N/A   Mostly Cloudy
12:56 AM -5.8 °F - -27.4 °F 35% 29.66 in 10.0 mi Calm Calm - N/A   Overcast
1:16 AM -7.6 °F - -25.6 °F 41% 29.66 in 10.0 mi Calm Calm - N/A   Mostly Cloudy
1:36 AM -5.8 °F - -20.2 °F 50% 29.66 in 10.0 mi Calm Calm - N/A   Mostly Cloudy
1:56 AM -5.8 °F - -18.4 °F 55% 29.66 in 10.0 mi Calm Calm - N/A   Mostly Cloudy
2:16 AM -7.6 °F - - N/A% 29.66 in 10.0 mi Calm Calm - N/A   Mostly Cloudy
2:36 AM -7.6 °F - - N/A% 29.66 in 7.0 mi Calm Calm - N/A   Overcast
2:56 AM -7.6 °F - - N/A% 29.65 in 5.0 mi Calm Calm - N/A   Overcast
3:16 AM -7.6 °F - -29.2 °F 34% 29.65 in 7.0 mi Calm Calm - N/A   Overcast
3:36 AM -7.6 °F -16.5 °F -25.6 °F 41% 29.65 in 9.0 mi North 3.5 mph - N/A   Overcast
3:56 AM -7.6 °F - -18.4 °F 59% 29.65 in 10.0 mi Calm Calm - N/A   Overcast
4:16 AM -7.6 °F - -20.2 °F 54% 29.65 in 7.0 mi Calm Calm - N/A   Overcast
4:36 AM -7.6 °F - -11.2 °F 84% 29.65 in 5.0 mi Calm Calm - N/A   Overcast
4:56 AM -7.6 °F - -41.8 °F 17% 29.64 in 10.0 mi Calm Calm - N/A   Overcast
5:16 AM -9.4 °F - - N/A% 29.65 in 10.0 mi Calm Calm - N/A   Overcast
5:36 AM -7.6 °F - - N/A% 29.65 in 4.0 mi Calm Calm - N/A   Overcast
5:56 AM -7.6 °F - - N/A% 29.64 in 5.0 mi Calm Calm - N/A   Overcast
6:16 AM -7.6 °F - -29.2 °F 34% 29.64 in 5.0 mi Calm Calm - N/A   Overcast
6:36 AM -7.6 °F - -23.8 °F 45% 29.65 in 4.0 mi Calm Calm - N/A   Overcast
6:56 AM -7.6 °F - -18.4 °F 59% 29.65 in 5.0 mi Calm Calm - N/A   Overcast
7:16 AM -7.6 °F - -14.8 °F 71% 29.65 in 6.0 mi Calm Calm - N/A   Mostly Cloudy
7:36 AM -7.6 °F - -14.8 °F 71% 29.65 in 5.0 mi Calm Calm - N/A   Overcast
7:56 AM -5.8 °F - -14.8 °F 65% 29.65 in 6.0 mi Calm Calm - N/A   Overcast
8:16 AM -5.8 °F - - N/A% 29.65 in 7.0 mi Calm Calm - N/A   Overcast
8:36 AM -5.8 °F - - N/A% 29.65 in 10.0 mi Calm Calm - N/A   Overcast
8:56 AM -5.8 °F - - N/A% 29.65 in 10.0 mi Calm Calm - N/A   Overcast
9:16 AM -5.8 °F - -29.2 °F 32% 29.65 in 8.0 mi Calm Calm - N/A   Overcast
9:36 AM -5.8 °F - -25.6 °F 38% 29.65 in 10.0 mi Calm Calm - N/A   Overcast
9:56 AM -5.8 °F - -20.2 °F 50% 29.65 in 10.0 mi Calm Calm - N/A   Overcast
10:16 AM -5.8 °F - -13.0 °F 71% 29.65 in 10.0 mi Calm Calm - N/A   Overcast
10:36 AM -5.8 °F - -11.2 °F 77% 29.65 in 10.0 mi Calm Calm - N/A   Overcast
10:56 AM -5.8 °F - - N/A% 29.66 in 10.0 mi Calm Calm - N/A   Overcast
11:16 AM -5.8 °F - - N/A% 29.66 in 10.0 mi Calm Calm - N/A   Overcast
11:36 AM -5.8 °F - -31.0 °F 29% 29.66 in 4.0 mi Calm Calm - N/A   Overcast
11:56 AM -4.0 °F - -25.6 °F 35% 29.66 in 2.0 mi Calm Calm - N/A   Overcast
12:16 PM -4.0 °F - -18.4 °F 50% 29.66 in 4.0 mi Calm Calm - N/A   Overcast
12:36 PM -4.0 °F - -14.8 °F 60% 29.66 in 6.0 mi Calm Calm - N/A   Overcast
12:56 PM -4.0 °F -14.6 °F -14.8 °F 60% 29.67 in 9.0 mi ESE 4.6 mph - N/A   Overcast
1:16 PM -4.0 °F - -7.6 °F 85% 29.66 in 7.0 mi Calm Calm - N/A   Overcast
1:36 PM -4.0 °F - - N/A% 29.67 in 5.0 mi Calm Calm - N/A   Overcast
1:56 PM -4.0 °F - - N/A% 29.67 in 4.0 mi Calm Calm - N/A   Overcast
2:16 PM -4.0 °F -14.6 °F - N/A% 29.67 in 5.0 mi East 4.6 mph - N/A   Overcast
2:36 PM -5.8 °F -16.7 °F -29.2 °F 32% 29.68 in 6.0 mi East 4.6 mph - N/A   Overcast
2:56 PM -5.8 °F -16.7 °F -25.6 °F 38% 29.67 in 5.0 mi East 4.6 mph - N/A   Mostly Cloudy
3:16 PM -7.6 °F -20.6 °F -23.8 °F 45% 29.67 in 10.0 mi ENE 5.8 mph - N/A   Clear
3:36 PM -7.6 °F -16.5 °F -16.6 °F 65% 29.68 in 10.0 mi East 3.5 mph - N/A   Partly Cloudy
3:56 PM -7.6 °F -20.6 °F -16.6 °F 65% 29.68 in 5.0 mi East 5.8 mph - N/A   Mostly Cloudy
4:16 PM -7.6 °F -18.8 °F - N/A% 29.68 in 3.0 mi NE 4.6 mph - N/A   Overcast
4:36 PM -7.6 °F -20.6 °F -31.0 °F 31% 29.68 in 9.0 mi NNE 5.8 mph - N/A   Overcast
4:56 PM -7.6 °F -16.5 °F -29.2 °F 34% 29.69 in 10.0 mi NNE 3.5 mph - N/A   Overcast
5:16 PM -9.4 °F -20.9 °F - N/A% 29.68 in 10.0 mi ENE 4.6 mph - N/A   Overcast
5:36 PM -9.4 °F -18.6 °F -29.2 °F 37% 29.68 in 10.0 mi East 3.5 mph - N/A   Overcast
5:56 PM -9.4 °F - -23.8 °F 49% 29.69 in 10.0 mi Calm Calm - N/A   Overcast
6:16 PM -9.4 °F - -20.2 °F 59% 29.69 in 10.0 mi Calm Calm - N/A   Overcast
6:36 PM -9.4 °F - -18.4 °F 65% 29.69 in 10.0 mi Calm Calm - N/A   Overcast
6:56 PM -9.4 °F - -18.4 °F 65% 29.69 in 10.0 mi Calm Calm - N/A   Overcast
7:16 PM -9.4 °F - -16.6 °F 71% 29.69 in 10.0 mi Calm Calm - N/A   Overcast
7:36 PM -11.2 °F - -29.2 °F 41% 29.69 in 10.0 mi Calm Calm - N/A   Overcast
7:56 PM -11.2 °F -23.0 °F - N/A% 29.68 in 10.0 mi ENE 4.6 mph - N/A   Overcast
8:16 PM -11.2 °F - - N/A% 29.68 in 10.0 mi Calm Calm - N/A   Overcast
8:36 PM - - - N/A% 29.68 in 10.0 mi ENE 8.1 mph - N/A   Overcast
8:56 PM -13.0 °F -28.6 °F - N/A% 29.69 in 10.0 mi East 6.9 mph - N/A   Mostly Cloudy
9:16 PM -14.8 °F -27.2 °F - N/A% 29.69 in 10.0 mi East 4.6 mph - N/A   Mostly Cloudy
9:36 PM -16.6 °F - - N/A% 29.69 in 10.0 mi Calm Calm - N/A   Scattered Clouds
9:56 PM -16.6 °F - - N/A% 29.70 in 10.0 mi Calm Calm - N/A   Clear
10:16 PM -16.6 °F - - N/A% 29.70 in 10.0 mi Calm Calm - N/A   Clear
10:36 PM -18.4 °F - - N/A% 29.70 in 10.0 mi Calm Calm - N/A   Mostly Cloudy
10:56 PM -18.4 °F - - N/A% 29.70 in 10.0 mi Calm Calm - N/A   Overcast
11:16 PM -18.4 °F - -29.2 °F 58% 29.70 in 10.0 mi Calm Calm - N/A   Overcast
11:36 PM -18.4 °F - - N/A% 29.70 in 10.0 mi Calm Calm - N/A   Overcast
11:56 PM -18.4 °F - -22.0 °F 84% 29.70 in 10.0 mi Calm Calm - N/A   Overcast